Location: Comstock Ranch
(38.0499°N, 120.2627°W)
Time: 20:16:33
(UTC+00:00)

Cosmos 2151 - Pass Details

Date: 08 September 2024
Orbit: 567 x 585 km, 82.5° (Epoch: 11 October)

Event Time Altitude Azimuth Distance (km) Brightness Sun altitude
Rises 12:35:09 0° 359° (N) 2,774 6.6 -12.8°
Reaches altitude 10° 12:37:25 10° 6° (N) 1,873 5.8 -12.4°
Maximum altitude 12:41:22 44° 80° (E) 790 4.2 -11.6°
Drops below altitude 10° 12:45:18 10° 153° (SSE) 1,865 5.7 -10.9°
Sets 12:47:33 0° 160° (SSE) 2,760 6.5 -10.4°
